[[{"header":{"parameterUnit":"m.s-1","parameterCategory":1,"la1":30.2991,"la2":30.254,"lo1":-89.0895,"lo2":-89.0444,"dy":0.0017,"dx":0.0017,"nx":28,"ny":28,"refTime":"2026-01-30T09:00:00:Z","depth":0,"parameterNumber":2,"parameterNumberName":"U-component_of_WINDS"},"data":[0,0,0,0,0,0,0,0,0,0,0,0,0,0,0,0,0,0,0,0,0,0,0,0,0,0,0,0,0,0,0,0,0,0,0,0,0,0,0,0,0,0,0,0,0,0,0,0,0,0,0,0,0,0,0,0,0,0,3.9639,3.964,0,3.9671,3.9671,3.9672,3.9638,3.9637,3.9635,3.9634,3.9665,3.9667,3.9669,0,0,0,0,0,0,0,0,0,0,0,0,0,3.9551,3.9553,3.9639,3.964,3.964,3.9671,3.9671,3.9672,3.9638,3.9637,3.9635,3.9634,3.9664,3.9667,3.9669,0,0,0,0,0,0,0,0,0,0,0,0,0,3.9587,3.9553,3.9639,3.9627,3.9626,3.9671,3.9671,3.9672,3.9639,3.9637,3.9635,3.9633,3.9663,3.9666,3.9669,3.9726,0,0,3.9679,3.968,0,0,0,0,0,0,0,0,3.9585,3.959,3.9629,3.9628,3.9627,3.9649,3.9651,3.969,3.9639,3.9634,3.9634,3.9632,3.9661,3.9664,3.9674,3.9728,3.9729,3.9679,3.9681,3.9682,3.9683,0,0,0,0,0,0,0,3.9582,3.9588,3.9652,3.9629,3.9629,3.962,3.9623,3.9658,3.9658,3.9634,3.9632,3.9636,3.966,3.9671,3.9674,3.973,3.9679,3.9681,3.9683,3.9684,3.9835,3.9837,0,0,0,0,0,0,3.9581,3.9586,3.9651,3.9653,3.9601,3.9624,3.9627,3.9644,3.9657,3.9658,3.9638,3.9634,3.9667,3.9671,3.9675,3.9745,3.9682,3.9685,3.9686,3.9832,3.9835,3.9837,0,0,0,0,0,0,3.9579,3.9587,3.9649,3.9619,3.9626,3.9627,3.9646,3.9645,3.9656,3.966,3.966,3.9649,3.9666,3.9671,3.9715,3.9745,3.9686,3.9689,3.983,3.9833,3.9836,3.9883,0,0,0,0,0,0,3.9577,3.9587,3.9608,3.962,3.9628,3.9688,3.9648,3.9647,3.9662,3.9658,3.9671,3.9671,3.9665,3.971,3.9718,3.9748,3.9691,3.9827,3.9831,3.9835,3.9878,3.9887,3.9895,0,0,0,0,0,3.9574,3.9619,3.9609,3.9617,3.9655,3.969,3.9695,3.9687,3.9664,3.9686,3.9689,3.967,3.9741,3.9715,3.9723,3.9755,3.9825,3.983,3.9835,3.9875,3.9885,3.9894,0,0,0,0,0,0,3.961,3.962,3.9609,3.966,3.9675,3.9684,3.9711,3.9698,3.9719,3.9714,3.9703,3.9707,3.9753,3.9758,3.9729,3.9812,3.9779,3.9786,3.9807,3.9817,3.9825,3.9822,3.9694,0,0,0,0,0,3.9624,3.9651,3.9659,3.9703,3.9711,3.971,3.9725,3.9718,3.9732,3.9738,3.9744,3.9758,3.9784,3.9801,3.9824,3.9879,3.9882,3.9906,3.9914,3.992,3.9926,3.9957,3.9968,3.9853,3.9853,3.9853,0,0,3.9652,3.9661,3.9679,3.971,3.9721,3.975,3.9715,3.9747,3.9769,3.9743,3.9784,3.979,3.9805,3.9855,3.9878,3.9861,3.9959,3.9926,3.9932,3.9934,3.9963,3.9974,3.9984,3.9857,3.9856,3.9856,0,0,3.9719,3.9729,3.9767,3.9779,3.9796,3.9796,3.9805,3.9818,3.9821,3.9863,3.9844,3.987,3.9914,3.9927,3.9939,4.0014,3.9998,4.0022,4.0064,4.0095,4.0104,4.0112,4.014,4.015,4.0028,4.0028,4.0028,0,3.9752,3.9796,3.9788,3.9823,3.9837,3.9817,3.9856,3.9868,3.9891,3.9902,3.9884,3.994,3.9949,4.0002,4.0021,4.0031,4.0042,4.002,4.0103,4.0111,4.0118,4.0145,4.0155,4.0031,4.0031,4.003,4.003,0,3.9837,3.9867,3.9896,3.9921,3.9939,3.9976,3.9974,3.9994,3.9986,3.9988,4.0032,4.0043,4.0069,4.0081,4.0073,4.0135,4.0124,4.0105,4.0071,4.0132,4.0157,4.0167,4.0035,4.0034,4.0033,4.0033,0,0,3.9925,3.9948,3.9958,3.997,3.9989,4.0012,4.0049,4.0076,4.0093,4.0111,4.0141,4.018,4.0163,4.0177,4.0171,4.0198,4.0259,4.0175,4.0176,4.0191,4.0328,4.0343,4.0355,4.0249,4.0251,4.0252,4.0327,0,3.9993,4.0057,4.0052,4.0112,4.0141,4.0124,4.0156,4.0171,4.0174,4.02,4.0203,4.0232,4.0207,4.0215,4.0241,4.0246,4.0286,4.024,4.0278,4.0279,4.0274,4.0367,4.0382,4.0452,4.0337,4.0338,4.034,0,4.0081,4.0103,4.0167,4.0183,4.0195,4.0224,4.0249,4.0274,4.0291,4.0292,4.0309,4.0299,4.0337,4.0304,4.0356,4.0325,4.034,4.0345,4.0347,4.035,4.0313,4.0373,4.0474,4.0485,4.0354,4.0353,4.0352,0,4.014,4.0186,4.023,4.0241,4.0261,4.0282,4.0291,4.0307,4.0324,4.0347,4.0358,4.0384,4.0398,4.0419,4.0417,4.0393,4.0471,4.0437,4.0473,4.0473,4.0489,4.0488,4.0594,4.0499,4.0499,4.0499,4.0499,0,4.0217,4.0256,4.0258,4.0285,4.0329,4.0324,4.0368,4.0375,4.039,4.0419,4.0405,4.0432,4.0428,4.0455,4.0454,4.0498,4.0505,4.0507,4.0506,4.0508,4.0508,4.0517,4.0512,4.0502,4.0501,4.0501,4.05,0,4.029,4.0292,4.0339,4.0356,4.0361,4.0393,4.0406,4.0433,4.0436,4.0473,4.0481,4.0486,4.0518,4.0519,4.0555,4.0554,4.0608,4.0602,4.0603,4.0601,4.0638,4.0635,4.0754,4.077,4.0664,4.0665,4.0666,0,4.0338,4.0369,4.0389,4.0408,4.0419,4.0449,4.0467,4.0464,4.0483,4.0507,4.0531,4.0562,4.0587,4.0639,4.0646,4.0674,4.0668,4.0708,4.0672,4.0674,4.067,4.0668,4.0671,4.0715,4.0716,4.0717,4.0718,0,4.0425,4.0425,4.0452,4.048,4.0503,4.0524,4.0545,4.0561,4.056,4.0583,4.0617,4.0636,4.0674,4.0705,4.0733,4.0743,4.0731,4.073,4.074,4.0742,4.0741,4.0743,4.0622,4.0727,4.0726,4.0725,4.0725,4.0724,4.0487,4.0514,4.0533,4.0564,4.058,4.06,4.0626,4.0633,4.0661,4.0693,4.0689,4.0727,4.0746,4.0782,4.0795,4.0824,4.081,4.0824,4.0828,4.0831,4.0836,4.0737,4.0829,4.0829,4.0828,4.0828,4.0828,0,4.0574,4.0586,4.0614,4.0644,4.0669,4.0657,4.0679,4.0701,4.0734,4.0753,4.0778,4.0818,4.0849,4.0859,4.089,4.0911,4.0907,4.0919,4.0918,4.092,4.0846,4.0835,4.0923,4.0923,4.0923,4.0923,4.0923,4.0923,4.0621,4.0667,4.067,4.0724,4.0735,4.0772,4.0786,4.0805,4.0821,4.0865,4.0891,4.0899,4.0915,4.0947,4.0975,4.0977,4.0989,4.1004,4.1005,4.0935,4.0925,4.0916,4.0906,4.1007,4.1007,4.1076,4.1077,4.1078]},{"header":{"parameterUnit":"m.s-1","parameterCategory":1,"la1":30.2991,"la2":30.254,"lo1":-89.0895,"lo2":-89.0444,"dy":0.0017,"dx":0.0017,"nx":28,"ny":28,"refTime":"2026-01-30T09:00:00:Z","depth":0,"parameterNumber":3,"parameterNumberName":"V-component_of_WINDS"},"data":[0,0,0,0,0,0,0,0,0,0,0,0,0,0,0,0,0,0,0,0,0,0,0,0,0,0,0,0,0,0,0,0,0,0,0,0,0,0,0,0,0,0,0,0,0,0,0,0,0,0,0,0,0,0,0,0,0,0,-10.1221,-10.1222,0,-10.1389,-10.1391,-10.1393,-10.1344,-10.1341,-10.1338,-10.1334,-10.1499,-10.1507,-10.1514,0,0,0,0,0,0,0,0,0,0,0,0,0,-10.0851,-10.0859,-10.122,-10.1223,-10.1225,-10.1389,-10.1391,-10.1393,-10.1345,-10.1341,-10.1337,-10.1333,-10.1497,-10.1506,-10.1515,0,0,0,0,0,0,0,0,0,0,0,0,0,-10.1015,-10.0861,-10.122,-10.1221,-10.1222,-10.1388,-10.1391,-10.1394,-10.1346,-10.1341,-10.1336,-10.1331,-10.1494,-10.1505,-10.1516,-10.169,0,0,-10.1551,-10.1556,0,0,0,0,0,0,0,0,-10.1006,-10.1028,-10.1218,-10.1221,-10.1223,-10.1341,-10.1321,-10.1493,-10.1347,-10.1299,-10.1334,-10.1328,-10.145,-10.1465,-10.1507,-10.1697,-10.1704,-10.1552,-10.1559,-10.1564,-10.1567,0,0,0,0,0,0,0,-10.0994,-10.1021,-10.1287,-10.1221,-10.1224,-10.1211,-10.1228,-10.1354,-10.1401,-10.1303,-10.1299,-10.1321,-10.145,-10.1497,-10.1511,-10.1707,-10.1552,-10.1562,-10.1569,-10.1573,-10.205,-10.2056,0,0,0,0,0,0,-10.0982,-10.1012,-10.1282,-10.1292,-10.11,-10.1222,-10.1241,-10.1308,-10.14,-10.1409,-10.1325,-10.1318,-10.148,-10.1498,-10.1517,-10.1728,-10.1564,-10.1574,-10.1581,-10.2044,-10.2052,-10.2058,0,0,0,0,0,0,-10.0975,-10.1007,-10.1275,-10.1151,-10.1184,-10.1233,-10.1309,-10.1314,-10.136,-10.1417,-10.1424,-10.1364,-10.1476,-10.1501,-10.1648,-10.1733,-10.1579,-10.159,-10.2038,-10.2047,-10.2055,-10.2151,0,0,0,0,0,0,-10.0964,-10.1004,-10.1072,-10.1153,-10.1191,-10.1406,-10.1314,-10.1321,-10.1381,-10.1373,-10.1455,-10.1464,-10.1474,-10.1632,-10.166,-10.1746,-10.1599,-10.203,-10.2042,-10.2052,-10.214,-10.2162,-10.218,0,0,0,0,0,-10.0951,-10.109,-10.1075,-10.1108,-10.1277,-10.141,-10.1432,-10.1444,-10.1388,-10.1456,-10.1492,-10.1461,-10.1719,-10.1647,-10.1678,-10.1769,-10.2025,-10.2038,-10.2051,-10.2131,-10.2157,-10.218,0,0,0,0,0,0,-10.1013,-10.11,-10.1085,-10.1255,-10.1326,-10.1402,-10.1488,-10.147,-10.1557,-10.1545,-10.1554,-10.1573,-10.1725,-10.1761,-10.1679,-10.1943,-10.1864,-10.1884,-10.1914,-10.1939,-10.1959,-10.1947,-10.1608,0,0,0,0,0,-10.1047,-10.1151,-10.122,-10.1363,-10.14,-10.1438,-10.1496,-10.15,-10.1573,-10.1602,-10.1649,-10.1719,-10.1816,-10.1879,-10.1971,-10.2145,-10.2163,-10.2223,-10.2243,-10.2259,-10.2276,-10.2373,-10.2401,-10.2101,-10.2101,-10.2101,0,0,-10.1117,-10.1178,-10.1241,-10.1377,-10.1432,-10.1538,-10.1463,-10.1577,-10.1655,-10.1618,-10.1762,-10.1799,-10.1878,-10.204,-10.2114,-10.2075,-10.2364,-10.2276,-10.2289,-10.2297,-10.2389,-10.2418,-10.2443,-10.211,-10.2108,-10.2107,0,0,-10.1299,-10.1355,-10.1482,-10.154,-10.1627,-10.1652,-10.1683,-10.1763,-10.1787,-10.1932,-10.1907,-10.1999,-10.2165,-10.2224,-10.2275,-10.2484,-10.2458,-10.2513,-10.2617,-10.2711,-10.2735,-10.2756,-10.2831,-10.2858,-10.253,-10.253,-10.253,0,-10.1375,-10.1535,-10.1548,-10.1666,-10.1727,-10.1702,-10.183,-10.1885,-10.1996,-10.2038,-10.1994,-10.2205,-10.2256,-10.2433,-10.2484,-10.2526,-10.2561,-10.2503,-10.2731,-10.2752,-10.2772,-10.2844,-10.2872,-10.2536,-10.2536,-10.2535,-10.2534,0,-10.1624,-10.1736,-10.1827,-10.194,-10.2011,-10.2132,-10.2163,-10.2233,-10.2231,-10.2261,-10.2409,-10.247,-10.2576,-10.2618,-10.2615,-10.2795,-10.2769,-10.2728,-10.2648,-10.2806,-10.2874,-10.2902,-10.2545,-10.2543,-10.2541,-10.254,0,0,-10.1848,-10.1969,-10.2003,-10.2055,-10.215,-10.2236,-10.2357,-10.2464,-10.2524,-10.2602,-10.2704,-10.2847,-10.2811,-10.287,-10.2873,-10.2956,-10.312,-10.2905,-10.2907,-10.2944,-10.3323,-10.3354,-10.3386,-10.3104,-10.3109,-10.3113,-10.3317,0,-10.2039,-10.2256,-10.2273,-10.2467,-10.2571,-10.2551,-10.2656,-10.2726,-10.2757,-10.2849,-10.2882,-10.2985,-10.2928,-10.2964,-10.3045,-10.3083,-10.3196,-10.3068,-10.3198,-10.3202,-10.318,-10.3421,-10.3454,-10.3643,-10.3344,-10.3348,-10.3351,0,-10.229,-10.2381,-10.2587,-10.2671,-10.2715,-10.281,-10.2911,-10.2999,-10.3077,-10.3094,-10.3162,-10.3156,-10.3279,-10.3196,-10.3367,-10.328,-10.3334,-10.3361,-10.3368,-10.3381,-10.3286,-10.3441,-10.3704,-10.3732,-10.3393,-10.339,-10.3387,0,-10.2435,-10.2608,-10.2754,-10.2799,-10.29,-10.2968,-10.3013,-10.3086,-10.315,-10.3237,-10.3279,-10.3378,-10.3433,-10.3509,-10.3529,-10.3466,-10.37,-10.3618,-10.3717,-10.3717,-10.3767,-10.3764,-10.4043,-10.3801,-10.3801,-10.38,-10.38,0,-10.2647,-10.2774,-10.2821,-10.2911,-10.3053,-10.3071,-10.3211,-10.3251,-10.3318,-10.3414,-10.3401,-10.3492,-10.3513,-10.3607,-10.3624,-10.3764,-10.3787,-10.3804,-10.3807,-10.3806,-10.3804,-10.3842,-10.3829,-10.3808,-10.3806,-10.3805,-10.3804,0,-10.2832,-10.2868,-10.3027,-10.3112,-10.3136,-10.3237,-10.3308,-10.3395,-10.3426,-10.3548,-10.3578,-10.3626,-10.3737,-10.3765,-10.3896,-10.3907,-10.4073,-10.4063,-10.4048,-10.4047,-10.4146,-10.4137,-10.4459,-10.4503,-10.4232,-10.4234,-10.4237,0,-10.2965,-10.3063,-10.316,-10.3226,-10.3275,-10.338,-10.3447,-10.3468,-10.3538,-10.3637,-10.3711,-10.3821,-10.3911,-10.4089,-10.4134,-10.4235,-10.4227,-10.4333,-10.4242,-10.4239,-10.423,-10.4224,-10.4235,-10.435,-10.4353,-10.4356,-10.4357,0,-10.3198,-10.3213,-10.3311,-10.3417,-10.3498,-10.3581,-10.366,-10.3714,-10.3747,-10.3826,-10.3941,-10.4011,-10.4148,-10.4257,-10.436,-10.4403,-10.4387,-10.4386,-10.4415,-10.4415,-10.4403,-10.4412,-10.4096,-10.4379,-10.4376,-10.4375,-10.4374,-10.4373,-10.3362,-10.345,-10.3533,-10.3643,-10.3706,-10.3782,-10.3868,-10.3912,-10.401,-10.4125,-10.4131,-10.4257,-10.4334,-10.4471,-10.4521,-10.4619,-10.4586,-10.4627,-10.4637,-10.4648,-10.4657,-10.4388,-10.4637,-10.4636,-10.4636,-10.4635,-10.4635,0,-10.3596,-10.3649,-10.3751,-10.3865,-10.3952,-10.3932,-10.402,-10.4094,-10.4206,-10.4281,-10.4371,-10.4504,-10.4611,-10.4666,-10.4772,-10.484,-10.4835,-10.4867,-10.4862,-10.4873,-10.4679,-10.4645,-10.4869,-10.4869,-10.4869,-10.4869,-10.4869,-10.4869,-10.3728,-10.3876,-10.39,-10.4079,-10.4131,-10.4257,-10.4309,-10.4379,-10.4439,-10.459,-10.4681,-10.4717,-10.4785,-10.4896,-10.4993,-10.5007,-10.5046,-10.5083,-10.5092,-10.491,-10.4886,-10.4863,-10.4831,-10.5091,-10.5092,-10.5278,-10.528,-10.5281]}]]